User: anonymous   Login
Location: Newark
(51.3000°N, 178.2000°W)
Time: 02:05:59
(UTC+00:00)
Language:

Tiangong - Orbit

View from above orbital plane
View from above orbital plane
View from above satellite
View from above satellite

Ground track
Ground track

The orbit data is extracted from the following two-line orbital elements,

1 48274U 21035A   21214.45930733  .00007611  00000-0  85624-4 0  9994
2 48274  41.4710   0.7782 0009306 286.6034 175.3502 15.62813859 14933
Epoch (UTC): 02 August 2021 11:01:24
Eccentricity: 0.0009306
inclination: 41.4710°
perigee height: 373 km
apogee height: 386 km
right ascension of ascending node: 0.7782°
argument of perigee: 286.6034°
revolutions per day: 15.62813859
mean anomaly at epoch: 175.3502°
orbit number at epoch: 1493

The dashed part of the orbit path shows where the satellite is in the earth's shadow,  

DLR